Date String (YYYY-MM-DD hh:mm:ss) UTC,Instrument flags,Ambient pressure (hPa),Sample flow (lpm),Bypass flow (lpm),Sample temperature (°C),Ambient temperature (°C),ASC tube jacket temperature (°C),LED temperature (°C),Box temperature (°C),Sample RH (%),Span deviation,Mass concentration (μg/m³),Mass concentration (μg/m³),Mass concentration (μg/m³)
DateTimeUTC,F1_M11,P_M11,Q1_M11,Q2_M11,T1_M11,T2_M11,T3_M11,T4_M11,T5_M11,U1_M11,ZSPAN_M11,X0_M11,X2_M11,X1_M11
2022-10-21 12:00:00,,0821.4,5.01,0.00,29.1,27.5,00.0,38.1,30.9,07.6,0000.0,0004.49,0002.19,0001.64
2022-10-21 12:01:00,,0821.4,4.99,0.00,29.1,27.5,00.0,38.0,30.8,07.7,0000.0,0004.65,0002.17,0001.63
2022-10-21 12:02:00,,0821.4,5.01,0.00,29.1,27.5,00.0,38.0,30.8,07.7,0000.0,0004.82,0002.18,0001.63
2022-10-21 12:03:00,,0821.4,4.98,0.00,29.1,27.5,00.0,38.0,30.8,07.7,0000.0,0004.66,0002.15,0001.63
2022-10-21 12:04:00,,0821.4,5.01,0.00,29.1,27.5,00.0,38.0,30.8,07.7,0000.0,0004.52,0002.18,0001.63
2022-10-21 12:05:00,,0821.4,5.00,0.00,29.1,27.5,00.0,38.0,30.9,07.7,0000.0,0004.56,0002.14,0001.62
2022-10-21 12:06:00,,0821.3,4.98,0.00,29.1,27.5,00.0,38.0,30.9,07.8,0000.0,0004.50,0002.16,0001.61
2022-10-21 12:07:00,,0821.3,5.02,0.00,29.1,27.5,00.0,38.0,30.8,07.8,0000.0,0004.48,0002.18,0001.61
2022-10-21 12:08:00,,0821.4,5.00,0.00,29.1,27.5,00.0,38.0,30.8,07.7,0000.0,0004.54,0002.23,0001.61
2022-10-21 12:09:00,,0821.3,5.00,0.00,29.0,27.4,00.0,38.0,30.8,07.7,0000.0,0004.46,0002.24,0001.61
2022-10-21 12:10:00,,0821.3,4.99,0.00,29.0,27.4,00.0,38.0,30.8,07.8,0000.0,0004.44,0002.27,0001.62
2022-10-21 12:11:00,,0821.2,5.02,0.00,29.0,27.4,00.0,38.0,30.9,07.7,0000.0,0005.26,0002.27,0001.63
2022-10-21 12:12:00,,0821.3,4.99,0.00,29.0,27.4,00.0,38.0,30.8,07.7,0000.0,0006.15,0002.32,0001.63
2022-10-21 12:13:00,,0821.3,4.99,0.00,29.0,27.4,00.0,38.0,30.8,07.8,0000.0,0006.67,0002.32,0001.63
2022-10-21 12:14:00,,0821.3,5.01,0.00,29.0,27.4,00.0,38.0,30.8,07.7,0000.0,0008.02,0002.31,0001.63
2022-10-21 12:15:00,,0821.3,5.01,0.00,29.0,27.4,00.0,37.9,30.8,07.7,0000.0,0008.30,0002.30,0001.64
2022-10-21 12:16:00,,0821.3,4.99,0.00,29.0,27.4,00.0,37.9,30.7,07.8,0000.0,0008.47,0002.31,0001.64
2022-10-21 12:17:00,,0821.2,4.99,0.00,29.0,27.3,00.0,37.9,30.7,07.9,0000.0,0008.61,0002.28,0001.64
2022-10-21 12:18:00,,0821.1,5.00,0.00,28.9,27.3,00.0,37.9,30.7,07.8,0000.0,0009.16,0002.27,0001.65
2022-10-21 12:19:00,,0821.2,5.00,0.00,28.9,27.3,00.0,37.9,30.7,07.8,0000.0,0009.30,0002.24,0001.65
2022-10-21 12:20:00,,0821.2,5.02,0.00,28.9,27.2,00.0,37.9,30.7,07.8,0000.0,0009.71,0002.19,0001.65
2022-10-21 12:21:00,,0821.1,4.99,0.00,28.9,27.2,00.0,37.9,30.6,07.8,0000.0,0009.83,0002.19,0001.66
2022-10-21 12:22:00,,0821.1,4.99,0.00,28.9,27.2,00.0,37.9,30.6,07.8,0000.0,0009.72,0002.19,0001.67
2022-10-21 12:23:00,,0821.2,5.00,0.00,28.8,27.2,00.0,37.8,30.6,07.8,0000.0,0009.00,0002.23,0001.68
2022-10-21 12:24:00,,0821.2,5.01,0.00,28.8,27.2,00.0,37.8,30.6,07.9,0000.0,0008.84,0002.22,0001.70
2022-10-21 12:25:00,,0821.2,5.01,0.00,28.8,27.2,00.0,37.8,30.6,07.9,0000.0,0008.25,0002.25,0001.70
2022-10-21 12:26:00,,0821.2,5.00,0.00,28.8,27.2,00.0,37.8,30.6,07.9,0000.0,0007.73,0002.27,0001.71
2022-10-21 12:27:00,,0821.1,5.00,0.00,28.8,27.2,00.0,37.8,30.6,07.9,0000.0,0008.26,0002.31,0001.71
2022-10-21 12:28:00,,0821.1,4.99,0.00,28.8,27.2,00.0,37.8,30.6,07.9,0000.0,0008.71,0002.36,0001.72
2022-10-21 12:29:00,,0821.2,5.00,0.00,28.8,27.2,00.0,37.8,30.5,08.0,0000.0,0008.46,0002.37,0001.73
2022-10-21 12:30:00,,0821.1,5.01,0.00,28.8,27.2,00.0,37.8,30.6,08.0,0000.0,0008.54,0002.37,0001.74
2022-10-21 12:31:00,,0821.1,5.01,0.00,28.8,27.2,00.0,37.8,30.6,07.9,0000.0,0008.29,0002.45,0001.75
2022-10-21 12:32:00,,0821.1,5.00,0.00,28.8,27.2,00.0,37.8,30.6,07.9,0000.0,0008.17,0002.47,0001.75
2022-10-21 12:33:00,,0821.1,5.00,0.00,28.8,27.2,00.0,37.8,30.6,07.8,0000.0,0008.24,0002.49,0001.76
2022-10-21 12:34:00,,0821.0,4.98,0.00,28.8,27.2,00.0,37.8,30.6,07.8,0000.0,0008.01,0002.47,0001.77
2022-10-21 12:35:00,,0821.1,5.00,0.00,28.8,27.2,00.0,37.7,30.6,07.8,0000.0,0008.26,0002.52,0001.78
2022-10-21 12:36:00,,0821.1,5.01,0.00,28.8,27.2,00.0,37.7,30.5,07.9,0000.0,0008.22,0002.53,0001.80
2022-10-21 12:37:00,,0821.1,5.01,0.00,28.7,27.2,00.0,37.7,30.5,07.9,0000.0,0008.20,0002.55,0001.81
2022-10-21 12:38:00,,0821.0,4.99,0.00,28.7,27.1,00.0,37.7,30.5,07.9,0000.0,0007.75,0002.58,0001.83
2022-10-21 12:39:00,,0821.0,4.98,0.00,28.7,27.0,00.0,37.7,30.5,07.8,0000.0,0007.98,0002.56,0001.86
2022-10-21 12:40:00,,0821.0,5.01,0.00,28.7,27.1,00.0,37.7,30.5,07.8,0000.0,0007.77,0002.61,0001.89
2022-10-21 12:41:00,,0821.0,5.00,0.00,28.7,27.1,00.0,37.7,30.5,07.9,0000.0,0007.60,0002.67,0001.91
2022-10-21 12:42:00,,0821.0,5.00,0.00,28.7,27.1,00.0,37.7,30.4,07.9,0000.0,0007.51,0002.67,0001.93
2022-10-21 12:43:00,,0820.9,4.99,0.00,28.7,27.1,00.0,37.6,30.4,07.8,0000.0,0007.64,0002.70,0001.95
2022-10-21 12:44:00,,0821.0,4.99,0.00,28.7,27.1,00.0,37.6,30.4,07.8,0000.0,0007.70,0002.76,0001.98
2022-10-21 12:45:00,,0821.0,5.01,0.00,28.7,27.1,00.0,37.6,30.3,07.9,0000.0,0007.77,0002.80,0002.01
2022-10-21 12:46:00,,0821.0,5.01,0.00,28.7,27.1,00.0,37.6,30.3,07.8,0000.0,0007.84,0002.80,0002.04
2022-10-21 12:47:00,,0821.0,4.98,0.00,28.7,27.1,00.0,37.6,30.3,07.7,0000.0,0007.62,0002.81,0002.06
2022-10-21 12:48:00,,0821.0,4.99,0.00,28.7,27.1,00.0,37.6,30.4,07.7,0000.0,0007.68,0002.85,0002.09
2022-10-21 12:49:00,,0821.0,5.00,0.00,28.7,27.1,00.0,37.6,30.4,07.7,0000.0,0007.90,0002.89,0002.13
2022-10-21 12:50:00,,0821.0,5.00,0.00,28.7,27.1,00.0,37.6,30.4,07.7,0000.0,0007.19,0002.94,0002.15
2022-10-21 12:51:00,,0821.0,5.00,0.00,28.7,27.1,00.0,37.6,30.5,07.8,0000.0,0006.87,0002.93,0002.16
2022-10-21 12:52:00,,0821.0,5.01,0.00,28.7,27.1,00.0,37.6,30.5,07.9,0000.0,0006.61,0002.91,0002.17
2022-10-21 12:53:00,,0821.0,5.01,0.00,28.7,27.1,00.0,37.6,30.5,07.9,0000.0,0006.81,0002.88,0002.16
2022-10-21 12:54:00,,0821.1,4.99,0.00,28.7,27.1,00.0,37.6,30.5,07.9,0000.0,0006.92,0002.86,0002.16
2022-10-21 12:55:00,,0821.1,5.00,0.00,28.7,27.1,00.0,37.6,30.5,07.9,0000.0,0006.60,0002.85,0002.14
2022-10-21 12:56:00,,0821.1,5.00,0.00,28.7,27.1,00.0,37.6,30.5,07.9,0000.0,0006.78,0002.84,0002.13
2022-10-21 12:57:00,,0821.0,5.01,0.00,28.7,27.1,00.0,37.6,30.5,07.9,0000.0,0006.38,0002.82,0002.12
2022-10-21 12:58:00,,0821.1,5.01,0.00,28.7,27.1,00.0,37.6,30.5,07.8,0000.0,0006.27,0002.84,0002.10
2022-10-21 12:59:00,,0821.0,5.00,0.00,28.7,27.1,00.0,37.6,30.5,07.8,0000.0,0005.95,0002.83,0002.08
